KLJ6411 EGHI-LEMH

Flight info

Callsign KLJ6411
Flight time 1h 44m
Altitude 39000
Route GWC DCT SITET DCT LGL DCT AMB DCT LMG DCT GAI DCT PPG DCT BGR DCT VERSO DCT SARGO
Aircraft A319/M-SDE3FGHIRWY/LB1

Departure

Time 2026-04-28 10:22
Airport Southampton Airport (EGHI)

Arrival

Time 2026-04-28 12:06
Airport Menorca Airport (LEMH)
Time Latitude Longitude Altitude Speed Heading
2026-04-28 09:45 50.95000 -1.36047 45 ft 0 kts 290°
2026-04-28 10:13 50.94998 -1.36042 45 ft 3 kts 290°
2026-04-28 10:13 50.94991 -1.36002 43 ft 4 kts 275°
2026-04-28 10:13 50.94993 -1.35963 42 ft 4 kts 232°
2026-04-28 10:13 50.95003 -1.35950 39 ft 1 kts 199°
2026-04-28 10:16 50.94992 -1.35955 41 ft 5 kts 199°
2026-04-28 10:16 50.94942 -1.35983 42 ft 10 kts 199°
2026-04-28 10:16 50.94856 -1.36031 41 ft 16 kts 200°
2026-04-28 10:17 50.94771 -1.36079 38 ft 15 kts 199°
2026-04-28 10:17 50.94674 -1.36133 35 ft 10 kts 199°
2026-04-28 10:17 50.94621 -1.36129 32 ft 8 kts 158°
2026-04-28 10:17 50.94597 -1.36108 31 ft 4 kts 124°
2026-04-28 10:18 50.94576 -1.36036 33 ft 10 kts 115°
2026-04-28 10:18 50.94528 -1.35961 32 ft 12 kts 182°
2026-04-28 10:18 50.94435 -1.36010 32 ft 16 kts 199°
2026-04-28 10:18 50.94330 -1.36038 32 ft 10 kts 165°
2026-04-28 10:19 50.94311 -1.36069 31 ft 6 kts 304°
2026-04-28 10:19 50.94329 -1.36068 30 ft 0 kts 19°
2026-04-28 10:21 50.94551 -1.35945 29 ft 84 kts 20°
2026-04-28 10:22 50.95363 -1.35483 201 ft 146 kts 22°
2026-04-28 10:22 50.96318 -1.34944 1113 ft 145 kts 25°
2026-04-28 10:22 50.97284 -1.34360 1856 ft 155 kts 31°
2026-04-28 10:22 50.97928 -1.32894 2280 ft 184 kts 78°
2026-04-28 10:23 50.97716 -1.30715 2954 ft 219 kts 103°
2026-04-28 10:23 50.97197 -1.28321 3881 ft 236 kts 105°
2026-04-28 10:23 50.96828 -1.26684 4683 ft 241 kts 106°
2026-04-28 10:23 50.96255 -1.24153 5898 ft 246 kts 106°
2026-04-28 10:24 50.95676 -1.21581 7111 ft 250 kts 106°
2026-04-28 10:24 50.95089 -1.18955 8234 ft 254 kts 106°
2026-04-28 10:24 50.94302 -1.15414 9711 ft 262 kts 107°
2026-04-28 10:24 50.93697 -1.12663 10680 ft 271 kts 107°
2026-04-28 10:25 50.93052 -1.09713 11154 ft 296 kts 106°
2026-04-28 10:25 50.92584 -1.07572 11425 ft 312 kts 107°
2026-04-28 10:25 50.91805 -1.04241 11969 ft 330 kts 112°
2026-04-28 10:25 50.90416 -1.01261 12750 ft 346 kts 133°
2026-04-28 10:26 50.88549 -0.98785 13607 ft 353 kts 137°
2026-04-28 10:26 50.86630 -0.96310 14416 ft 358 kts 137°
2026-04-28 10:26 50.84709 -0.93853 15191 ft 362 kts 137°
2026-04-28 10:26 50.82739 -0.91344 16014 ft 365 kts 137°
2026-04-28 10:27 50.80750 -0.88812 16803 ft 370 kts 137°
2026-04-28 10:27 50.78733 -0.86240 17569 ft 375 kts 137°
2026-04-28 10:27 50.76697 -0.83633 18360 ft 379 kts 137°
2026-04-28 10:27 50.74634 -0.80992 19074 ft 384 kts 137°
2026-04-28 10:28 50.72544 -0.78325 19779 ft 388 kts 136°
2026-04-28 10:28 50.70434 -0.75638 20500 ft 392 kts 136°
2026-04-28 10:28 50.68301 -0.72925 21183 ft 396 kts 136°
2026-04-28 10:29 50.63970 -0.67420 22495 ft 404 kts 135°
2026-04-28 10:29 50.61772 -0.64630 23120 ft 407 kts 135°
2026-04-28 10:29 50.59555 -0.61823 23735 ft 411 kts 135°
2026-04-28 10:29 50.57308 -0.58987 24245 ft 414 kts 135°
2026-04-28 10:30 50.55050 -0.56139 24718 ft 418 kts 136°
2026-04-28 10:30 50.52802 -0.53303 25191 ft 422 kts 136°
2026-04-28 10:30 50.50504 -0.50407 25658 ft 425 kts 136°
2026-04-28 10:30 50.48185 -0.47490 26116 ft 429 kts 136°
2026-04-28 10:31 50.45844 -0.44554 26594 ft 433 kts 137°
2026-04-28 10:31 50.43481 -0.41595 27043 ft 436 kts 137°
2026-04-28 10:31 50.41096 -0.38615 27488 ft 440 kts 137°
2026-04-28 10:31 50.38694 -0.35617 27883 ft 444 kts 138°
2026-04-28 10:32 50.36270 -0.32590 28287 ft 448 kts 139°
2026-04-28 10:32 50.33824 -0.29534 28673 ft 451 kts 139°
2026-04-28 10:32 50.31361 -0.26454 29057 ft 454 kts 138°
2026-04-28 10:32 50.28884 -0.23359 29428 ft 458 kts 139°
2026-04-28 10:33 50.26381 -0.20241 29788 ft 461 kts 138°
2026-04-28 10:33 50.23858 -0.17107 30146 ft 465 kts 138°
2026-04-28 10:33 50.21324 -0.13961 30467 ft 467 kts 138°
2026-04-28 10:33 50.18779 -0.10809 30867 ft 467 kts 139°
2026-04-28 10:34 50.16221 -0.07650 31206 ft 469 kts 140°
2026-04-28 10:34 50.13655 -0.04493 31585 ft 470 kts 141°
2026-04-28 10:34 50.10964 -0.01605 32017 ft 470 kts 149°
2026-04-28 10:34 50.08021 0.00610 32468 ft 470 kts 158°
2026-04-28 10:35 50.04947 0.02106 32946 ft 468 kts 165°
2026-04-28 10:35 50.01804 0.03399 33416 ft 468 kts 165°
2026-04-28 10:35 49.98658 0.04698 33865 ft 467 kts 165°
2026-04-28 10:35 49.95516 0.05996 34320 ft 466 kts 165°
2026-04-28 10:36 49.92385 0.07289 34719 ft 466 kts 165°
2026-04-28 10:36 49.89250 0.08585 35101 ft 466 kts 165°
2026-04-28 10:36 49.86112 0.09883 35454 ft 467 kts 165°
2026-04-28 10:36 49.82965 0.11186 35794 ft 468 kts 165°
2026-04-28 10:37 49.79811 0.12488 36118 ft 470 kts 165°
2026-04-28 10:37 49.76640 0.13794 36412 ft 472 kts 165°
2026-04-28 10:37 49.73466 0.15096 36771 ft 472 kts 166°
2026-04-28 10:37 49.70292 0.16396 37123 ft 472 kts 165°
2026-04-28 10:38 49.67121 0.17696 37526 ft 471 kts 166°
2026-04-28 10:38 49.63948 0.18996 37781 ft 474 kts 165°
2026-04-28 10:38 49.60797 0.20285 38092 ft 475 kts 165°
2026-04-28 10:38 49.57601 0.21589 38319 ft 477 kts 165°
2026-04-28 10:39 49.54388 0.22897 38641 ft 477 kts 165°
2026-04-28 10:39 49.51179 0.24197 38912 ft 477 kts 166°
2026-04-28 10:39 49.47972 0.25492 39130 ft 476 kts 166°
2026-04-28 10:40 49.41605 0.28067 39166 ft 472 kts 166°
2026-04-28 10:40 49.35237 0.30640 39167 ft 474 kts 166°
2026-04-28 10:41 49.28873 0.33202 39164 ft 471 kts 166°
2026-04-28 10:41 49.22554 0.35737 39163 ft 470 kts 166°
2026-04-28 10:42 49.16230 0.38276 39151 ft 471 kts 166°
2026-04-28 10:42 49.09881 0.40816 39159 ft 471 kts 166°
2026-04-28 10:43 49.03544 0.43334 39160 ft 469 kts 167°
2026-04-28 10:43 48.97273 0.45828 39171 ft 468 kts 168°
2026-04-28 10:44 48.90988 0.48323 39163 ft 466 kts 168°
2026-04-28 10:44 48.84719 0.50792 39160 ft 465 kts 167°
2026-04-28 10:45 48.78456 0.53268 39149 ft 465 kts 167°
2026-04-28 10:45 48.72203 0.55764 39137 ft 465 kts 168°
2026-04-28 10:46 48.65961 0.58290 39139 ft 464 kts 167°
2026-04-28 10:46 48.59712 0.60813 39125 ft 464 kts 168°
2026-04-28 10:47 48.53464 0.63307 39118 ft 464 kts 168°
2026-04-28 10:47 48.47219 0.65784 39116 ft 464 kts 168°
2026-04-28 10:48 48.41005 0.68245 39108 ft 464 kts 168°
2026-04-28 10:48 48.34757 0.70728 39106 ft 465 kts 168°
2026-04-28 10:49 48.28505 0.73207 39098 ft 465 kts 168°
2026-04-28 10:49 48.22249 0.75675 39097 ft 465 kts 168°
2026-04-28 10:50 48.15994 0.78139 39090 ft 465 kts 168°
2026-04-28 10:50 48.09740 0.80588 39090 ft 465 kts 168°
2026-04-28 10:51 48.03485 0.83037 39091 ft 464 kts 168°
2026-04-28 10:51 47.97236 0.85471 39081 ft 464 kts 168°
2026-04-28 10:52 47.90999 0.87900 39094 ft 463 kts 168°
2026-04-28 10:52 47.84821 0.90309 39096 ft 461 kts 168°
2026-04-28 10:53 47.78618 0.92724 39075 ft 460 kts 169°
2026-04-28 10:53 47.72430 0.95114 39086 ft 459 kts 169°
2026-04-28 10:54 47.66256 0.97483 39088 ft 458 kts 169°
2026-04-28 10:54 47.60094 0.99854 39081 ft 457 kts 169°
2026-04-28 10:55 47.53934 1.02220 39067 ft 457 kts 169°
2026-04-28 10:55 47.47780 1.04572 39071 ft 457 kts 169°
2026-04-28 10:56 47.41580 1.06350 39068 ft 451 kts 181°
2026-04-28 10:56 47.35338 1.06255 39056 ft 448 kts 185°
2026-04-28 10:57 47.29137 1.06093 39062 ft 448 kts 184°
2026-04-28 10:57 47.22898 1.05947 39066 ft 448 kts 184°
2026-04-28 10:58 47.16665 1.05805 39046 ft 448 kts 184°
2026-04-28 10:58 47.10439 1.05654 39060 ft 447 kts 185°
2026-04-28 10:59 47.04222 1.05489 39062 ft 446 kts 185°
2026-04-28 10:59 46.98015 1.05341 39062 ft 446 kts 184°
2026-04-28 11:00 46.91819 1.05197 39056 ft 445 kts 185°
2026-04-28 11:00 46.85626 1.05043 39060 ft 444 kts 185°
2026-04-28 11:01 46.79446 1.04892 39054 ft 444 kts 185°
2026-04-28 11:01 46.73270 1.04746 39053 ft 444 kts 185°
2026-04-28 11:02 46.67095 1.04600 39048 ft 443 kts 185°
2026-04-28 11:02 46.60927 1.04447 39046 ft 443 kts 185°
2026-04-28 11:03 46.54800 1.04301 39026 ft 443 kts 185°
2026-04-28 11:03 46.48640 1.04160 39031 ft 442 kts 185°
2026-04-28 11:04 46.42484 1.04014 39031 ft 442 kts 185°
2026-04-28 11:04 46.36330 1.03860 39020 ft 442 kts 185°
2026-04-28 11:05 46.30181 1.03708 39014 ft 442 kts 185°
2026-04-28 11:05 46.24028 1.03556 39012 ft 442 kts 185°
2026-04-28 11:06 46.17878 1.03410 39017 ft 442 kts 185°
2026-04-28 11:06 46.11724 1.03272 39007 ft 443 kts 185°
2026-04-28 11:07 46.05598 1.03130 39008 ft 443 kts 185°
2026-04-28 11:07 45.99428 1.02983 39017 ft 443 kts 185°
2026-04-28 11:08 45.93260 1.02836 39008 ft 444 kts 186°
2026-04-28 11:08 45.87071 1.02688 39013 ft 445 kts 186°
2026-04-28 11:09 45.80869 1.03066 39019 ft 452 kts 174°
2026-04-28 11:09 45.74776 1.05564 39005 ft 457 kts 167°
2026-04-28 11:10 45.68698 1.08274 38993 ft 458 kts 167°
2026-04-28 11:10 45.62617 1.10963 39003 ft 458 kts 168°
2026-04-28 11:11 45.56527 1.13639 38993 ft 458 kts 168°
2026-04-28 11:11 45.50433 1.16312 39010 ft 458 kts 168°
2026-04-28 11:12 45.44343 1.18978 39020 ft 458 kts 168°
2026-04-28 11:12 45.38245 1.21636 39024 ft 458 kts 168°
2026-04-28 11:13 45.32151 1.24291 39034 ft 458 kts 168°
2026-04-28 11:13 45.26106 1.26928 39048 ft 457 kts 168°
2026-04-28 11:14 45.20024 1.29575 39061 ft 457 kts 168°
2026-04-28 11:14 45.13949 1.32207 39059 ft 456 kts 168°
2026-04-28 11:15 45.07882 1.34830 39070 ft 456 kts 168°
2026-04-28 11:15 45.01826 1.37445 39072 ft 455 kts 168°
2026-04-28 11:16 44.95780 1.40041 39060 ft 454 kts 168°
2026-04-28 11:16 44.90761 1.42195 39063 ft 453 kts 168°
2026-04-28 11:17 44.84729 1.44784 39065 ft 452 kts 168°
2026-04-28 11:17 44.78710 1.47359 39068 ft 452 kts 168°
2026-04-28 11:18 44.72694 1.49917 39065 ft 452 kts 168°
2026-04-28 11:18 44.66678 1.52483 39068 ft 451 kts 168°
2026-04-28 11:19 44.60710 1.55024 39064 ft 451 kts 168°
2026-04-28 11:19 44.54708 1.57569 39061 ft 450 kts 168°
2026-04-28 11:20 44.48718 1.60097 39064 ft 449 kts 168°
2026-04-28 11:20 44.42725 1.62626 39064 ft 449 kts 168°
2026-04-28 11:21 44.36744 1.65148 39057 ft 448 kts 168°
2026-04-28 11:21 44.30771 1.67661 39063 ft 447 kts 168°
2026-04-28 11:22 44.24811 1.70158 39070 ft 447 kts 168°
2026-04-28 11:22 44.18855 1.72642 39059 ft 446 kts 168°
2026-04-28 11:23 44.12949 1.75104 39063 ft 445 kts 168°
2026-04-28 11:23 44.07017 1.77586 39063 ft 445 kts 168°
2026-04-28 11:24 44.01091 1.80071 39043 ft 444 kts 168°
2026-04-28 11:24 43.95227 1.82826 39045 ft 449 kts 159°
2026-04-28 11:25 43.89832 1.87326 39047 ft 453 kts 152°
2026-04-28 11:25 43.84519 1.92040 39041 ft 453 kts 152°
2026-04-28 11:26 43.79200 1.96754 39027 ft 453 kts 152°
2026-04-28 11:26 43.73882 2.01448 39035 ft 453 kts 152°
2026-04-28 11:27 43.68595 2.06089 39036 ft 453 kts 152°
2026-04-28 11:27 43.63234 2.10783 39033 ft 453 kts 152°
2026-04-28 11:28 43.57943 2.15419 39039 ft 453 kts 152°
2026-04-28 11:28 43.52614 2.20073 39047 ft 453 kts 152°
2026-04-28 11:29 43.47280 2.24717 39049 ft 453 kts 152°
2026-04-28 11:29 43.41946 2.29353 39046 ft 453 kts 152°
2026-04-28 11:30 43.36608 2.33982 39012 ft 454 kts 152°
2026-04-28 11:30 43.28595 2.40921 39022 ft 454 kts 152°
2026-04-28 11:31 43.23249 2.45540 39029 ft 454 kts 152°
2026-04-28 11:31 43.17893 2.50155 39024 ft 454 kts 152°
2026-04-28 11:32 43.12545 2.54756 39033 ft 454 kts 152°
2026-04-28 11:32 43.07186 2.59351 39036 ft 454 kts 152°
2026-04-28 11:33 43.01839 2.63923 39040 ft 453 kts 152°
2026-04-28 11:33 42.96367 2.68136 39028 ft 448 kts 161°
2026-04-28 11:34 42.90617 2.71416 39036 ft 448 kts 161°
2026-04-28 11:34 42.84906 2.74672 39041 ft 448 kts 161°
2026-04-28 11:35 42.79150 2.77930 39046 ft 447 kts 161°
2026-04-28 11:35 42.73393 2.81175 39050 ft 447 kts 161°
2026-04-28 11:36 42.67646 2.84450 39033 ft 448 kts 161°
2026-04-28 11:36 42.61912 2.87769 39034 ft 448 kts 161°
2026-04-28 11:37 42.56179 2.91074 39032 ft 448 kts 161°
2026-04-28 11:37 42.50442 2.94357 39040 ft 447 kts 161°
2026-04-28 11:38 42.44713 2.97634 39042 ft 447 kts 161°
2026-04-28 11:38 42.38984 3.00908 39040 ft 447 kts 161°
2026-04-28 11:39 42.33254 3.04176 39027 ft 446 kts 161°
2026-04-28 11:39 42.27528 3.07417 39034 ft 446 kts 161°
2026-04-28 11:40 42.21797 3.10657 39032 ft 447 kts 161°
2026-04-28 11:40 42.16068 3.13911 39033 ft 447 kts 161°
2026-04-28 11:41 42.10371 3.17136 39024 ft 447 kts 161°
2026-04-28 11:41 42.04639 3.20361 39028 ft 446 kts 161°
2026-04-28 11:42 41.98905 3.23582 39038 ft 446 kts 161°
2026-04-28 11:42 41.93174 3.26799 39022 ft 446 kts 161°
2026-04-28 11:43 41.87453 3.30021 39029 ft 446 kts 161°
2026-04-28 11:43 41.81734 3.33235 39032 ft 446 kts 161°
2026-04-28 11:44 41.76008 3.36427 39041 ft 445 kts 161°
2026-04-28 11:44 41.70281 3.39612 39040 ft 445 kts 161°
2026-04-28 11:45 41.64557 3.42787 39043 ft 445 kts 161°
2026-04-28 11:45 41.58836 3.45956 39044 ft 445 kts 161°
2026-04-28 11:46 41.53152 3.49110 39048 ft 445 kts 161°
2026-04-28 11:46 41.50294 3.50699 38883 ft 445 kts 161°
2026-04-28 11:46 41.47441 3.52281 38644 ft 444 kts 161°
2026-04-28 11:47 41.44590 3.53860 38364 ft 443 kts 161°
2026-04-28 11:47 41.41744 3.55433 38080 ft 443 kts 161°
2026-04-28 11:47 41.38894 3.57003 37797 ft 443 kts 161°
2026-04-28 11:47 41.36044 3.58570 37534 ft 444 kts 161°
2026-04-28 11:48 41.33185 3.60140 37266 ft 444 kts 161°
2026-04-28 11:48 41.30331 3.61702 36996 ft 444 kts 161°
2026-04-28 11:48 41.27474 3.63267 36730 ft 445 kts 160°
2026-04-28 11:48 41.24610 3.64841 36466 ft 445 kts 160°
2026-04-28 11:49 41.21756 3.66416 35960 ft 445 kts 160°
2026-04-28 11:49 41.18872 3.68003 35089 ft 450 kts 160°
2026-04-28 11:49 41.15966 3.69592 34165 ft 454 kts 160°
2026-04-28 11:49 41.13033 3.71189 33091 ft 458 kts 160°
2026-04-28 11:50 41.10074 3.72797 32019 ft 461 kts 160°
2026-04-28 11:50 41.07086 3.74424 30833 ft 466 kts 160°
2026-04-28 11:50 41.04072 3.76063 29547 ft 470 kts 160°
2026-04-28 11:50 41.01041 3.77709 28182 ft 473 kts 160°
2026-04-28 11:51 40.98035 3.79343 26891 ft 473 kts 160°
2026-04-28 11:51 40.94985 3.81001 25645 ft 473 kts 159°
2026-04-28 11:51 40.91951 3.82651 24500 ft 470 kts 159°
2026-04-28 11:51 40.88954 3.84283 23550 ft 462 kts 159°
2026-04-28 11:52 40.86004 3.85892 22512 ft 454 kts 159°
2026-04-28 11:52 40.83123 3.87459 21600 ft 444 kts 159°
2026-04-28 11:52 40.80292 3.88991 20692 ft 435 kts 159°
2026-04-28 11:52 40.77513 3.90486 19793 ft 427 kts 159°
2026-04-28 11:53 40.74788 3.91953 18929 ft 420 kts 159°
2026-04-28 11:53 40.72107 3.93402 18070 ft 412 kts 159°
2026-04-28 11:53 40.69481 3.94817 17265 ft 403 kts 159°
2026-04-28 11:53 40.66905 3.96201 16520 ft 396 kts 159°
2026-04-28 11:54 40.64411 3.97539 15802 ft 389 kts 159°
2026-04-28 11:54 40.61925 3.98873 15103 ft 382 kts 159°
2026-04-28 11:54 40.59484 4.00183 14388 ft 376 kts 159°
2026-04-28 11:54 40.57079 4.01472 13636 ft 371 kts 160°
2026-04-28 11:55 40.54706 4.02741 12861 ft 365 kts 159°
2026-04-28 11:55 40.52371 4.03991 12116 ft 360 kts 159°
2026-04-28 11:55 40.50063 4.05228 11357 ft 356 kts 159°
2026-04-28 11:55 40.47789 4.06446 10891 ft 345 kts 159°
2026-04-28 11:56 40.45630 4.07602 10770 ft 325 kts 159°
2026-04-28 11:56 40.43589 4.08695 10650 ft 309 kts 159°
2026-04-28 11:56 40.41636 4.09743 10450 ft 298 kts 159°
2026-04-28 11:56 40.39736 4.10761 10210 ft 292 kts 159°
2026-04-28 11:57 40.37861 4.11761 9973 ft 290 kts 159°
2026-04-28 11:57 40.36001 4.12751 9829 ft 288 kts 159°
2026-04-28 11:57 40.34142 4.13738 9696 ft 288 kts 159°
2026-04-28 11:57 40.32307 4.14711 9563 ft 288 kts 159°
2026-04-28 11:58 40.30454 4.15694 9435 ft 287 kts 159°
2026-04-28 11:58 40.28597 4.16678 8980 ft 290 kts 159°
2026-04-28 11:58 40.26736 4.17664 8606 ft 286 kts 159°
2026-04-28 11:58 40.24899 4.18641 8188 ft 283 kts 159°
2026-04-28 11:59 40.23082 4.19606 7659 ft 280 kts 158°
2026-04-28 11:59 40.21279 4.20562 7096 ft 279 kts 158°
2026-04-28 11:59 40.19484 4.21509 6589 ft 276 kts 158°
2026-04-28 11:59 40.17704 4.22448 6062 ft 274 kts 157°
2026-04-28 12:00 40.15950 4.23376 5563 ft 270 kts 156°
2026-04-28 12:00 40.14251 4.24277 5153 ft 264 kts 156°
2026-04-28 12:00 40.12553 4.25084 4896 ft 254 kts 160°
2026-04-28 12:00 40.10920 4.25763 4773 ft 239 kts 161°
2026-04-28 12:01 40.09364 4.26367 4573 ft 228 kts 164°
2026-04-28 12:01 40.07824 4.26372 4326 ft 219 kts 187°
2026-04-28 12:01 40.06354 4.26030 4048 ft 210 kts 188°
2026-04-28 12:01 40.04927 4.25718 3776 ft 206 kts 187°
2026-04-28 12:02 40.03521 4.25424 3510 ft 203 kts 186°
2026-04-28 12:02 40.02162 4.25142 3264 ft 194 kts 186°
2026-04-28 12:02 40.00854 4.24872 2996 ft 186 kts 186°
2026-04-28 12:02 39.99599 4.24613 2769 ft 182 kts 186°
2026-04-28 12:03 39.98345 4.24355 2508 ft 182 kts 186°
2026-04-28 12:03 39.97107 4.24100 2280 ft 178 kts 186°
2026-04-28 12:03 39.95909 4.23852 2045 ft 170 kts 186°
2026-04-28 12:03 39.94791 4.23621 1829 ft 160 kts 185°
2026-04-28 12:04 39.93717 4.23399 1613 ft 151 kts 186°
2026-04-28 12:04 39.92705 4.23188 1411 ft 139 kts 183°
2026-04-28 12:04 39.92084 4.23056 1273 ft 134 kts 187°
2026-04-28 12:04 39.90868 4.22803 1094 ft 134 kts 186°
2026-04-28 12:05 39.90245 4.22674 946 ft 135 kts 183°
2026-04-28 12:05 39.89034 4.22415 695 ft 131 kts 184°
2026-04-28 12:05 39.88124 4.22245 541 ft 132 kts 183°
2026-04-28 12:05 39.87224 4.22061 355 ft 130 kts 183°
2026-04-28 12:06 39.86650 4.21951 298 ft 115 kts 189°
2026-04-28 12:06 39.86033 4.21821 298 ft 67 kts 189°
2026-04-28 12:06 39.85722 4.21759 298 ft 37 kts 186°
2026-04-28 12:06 39.85476 4.21811 294 ft 24 kts 159°
2026-04-28 12:07 39.85402 4.21902 292 ft 14 kts 72°
2026-04-28 12:07 39.85497 4.21948 292 ft 17 kts 10°
2026-04-28 12:07 39.85624 4.21973 294 ft 20 kts
2026-04-28 12:07 39.85769 4.22003 299 ft 23 kts
2026-04-28 12:08 39.85927 4.22037 296 ft 22 kts
2026-04-28 12:08 39.86088 4.22068 297 ft 16 kts
2026-04-28 12:08 39.86170 4.22088 298 ft 10 kts 19°
2026-04-28 12:08 39.86187 4.22177 295 ft 13 kts 98°
2026-04-28 12:09 39.86229 4.22268 295 ft 15 kts 11°
2026-04-28 12:09 39.86343 4.22293 295 ft 18 kts
2026-04-28 12:09 39.86448 4.22314 295 ft 11 kts
2026-04-28 12:09 39.86469 4.22366 295 ft 6 kts 99°
2026-04-28 12:10 39.86465 4.22391 297 ft 3 kts 100°
2026-04-28 12:10 39.86464 4.22405 297 ft 0 kts 100°